| time (UTC) | temp C | wind direction | speed KPH | gust KPH | rain 1hr cm | rain 24hr cm | rain mn cm | humidity % | barometer mb |
| 20260504184745 | 22 | 243 | 6.4 | 22.5 | 0.00 | 0.00 | 0.00 | 17 | 1006.5 |
| 20260504184243 | 22 | 231 | 3.2 | 22.5 | 0.00 | 0.00 | 0.00 | 18 | 1006.4 |
| 20260504183754 | 22 | 351 | 4.8 | 17.7 | 0.00 | 0.00 | 0.00 | 18 | 1006.5 |
| 20260504183312 | 21 | 297 | 6.4 | 17.7 | 0.00 | 0.00 | 0.00 | 18 | 1006.6 |
| 20260504183013 | 21 | 226 | 4.8 | 19.3 | 0.00 | 0.00 | 0.00 | 19 | 1006.7 |
| 20260504182811 | 21 | 274 | 4.8 | 19.3 | 0.00 | 0.00 | 0.00 | 18 | 1006.5 |
| 20260504182248 | 21 | 144 | 3.2 | 22.5 | 0.00 | 0.00 | 0.00 | 19 | 1006.6 |
| 20260504181804 | 21 | 271 | 9.7 | 22.5 | 0.00 | 0.00 | 0.00 | 18 | 1006.9 |
| 20260504181257 | 21 | 335 | 8.0 | 24.1 | 0.00 | 0.00 | 0.00 | 18 | 1006.4 |
| 20260504180757 | 21 | 286 | 9.7 | 24.1 | 0.00 | 0.00 | 0.00 | 18 | 1006.6 |
| 20260504180252 | 21 | 273 | 3.2 | 19.3 | 0.00 | 0.00 | 0.00 | 20 | 1006.9 |
| 20260504175754 | 21 | 96 | 8.0 | 19.3 | 0.00 | 0.00 | 0.00 | 17 | 1006.8 |
| 20260504175311 | 21 | 244 | 8.0 | 22.5 | 0.00 | 0.00 | 0.00 | 17 | 1006.7 |
| 20260504174752 | 21 | 240 | 6.4 | 22.5 | 0.00 | 0.00 | 0.00 | 17 | 1006.9 |
| 20260504174250 | 21 | 244 | 6.4 | 27.4 | 0.00 | 0.00 | 0.00 | 17 | 1006.8 |
| 20260504173748 | 21 | 278 | 8.0 | 27.4 | 0.00 | 0.00 | 0.00 | 18 | 1006.9 |
| 20260504173246 | 20 | 235 | 4.8 | 20.9 | 0.00 | 0.00 | 0.00 | 18 | 1006.9 |
| 20260504172747 | 20 | 231 | 8.0 | 19.3 | 0.00 | 0.00 | 0.00 | 18 | 1007.0 |
| 20260504172320 | 20 | 102 | 8.0 | 19.3 | 0.00 | 0.00 | 0.00 | 19 | 1007.0 |
| 20260504171758 | 20 | 196 | 8.0 | 19.3 | 0.00 | 0.00 | 0.00 | 20 | 1007.2 |
| 20260504171254 | 20 | 224 | 6.4 | 16.1 | 0.00 | 0.00 | 0.00 | 19 | 1007.4 |
| 20260504170755 | 20 | 286 | 6.4 | 27.4 | 0.00 | 0.00 | 0.00 | 21 | 1007.2 |
| 20260504170253 | 20 | 240 | 9.7 | 27.4 | 0.00 | 0.00 | 0.00 | 20 | 1007.4 |
| 20260504160243 | 18 | 158 | 6.4 | 22.5 | 0.00 | 0.00 | 0.00 | 22 | 1007.7 |
| 20260504150742 | 18 | 226 | 6.4 | 20.9 | 0.00 | 0.00 | 0.00 | 24 | 1008.3 |
| 20260504150253 | 17 | 254 | 8.0 | 20.9 | 0.00 | 0.00 | 0.00 | 24 | 1008.3 |
| 20260504141251 | 16 | 311 | 3.2 | 16.1 | 0.00 | 0.00 | 0.00 | 29 | 1009.0 |
| 20260504140752 | 16 | 253 | 3.2 | 9.7 | 0.00 | 0.00 | 0.00 | 30 | 1009.2 |
| 20260504140249 | 16 | 302 | 3.2 | 12.9 | 0.00 | 0.00 | 0.00 | 29 | 1009.1 |
| 20260504130802 | 12 | 248 | 3.2 | 14.5 | 0.00 | 0.05 | 0.00 | 37 | 1009.4 |
| 20260504130256 | 12 | 312 | 3.2 | 11.3 | 0.00 | 0.05 | 0.00 | 37 | 1009.6 |
| 20260504120247 | 11 | 51 | 3.2 | 12.9 | 0.00 | 0.05 | 0.00 | 40 | 1009.7 |
| 20260504110304 | 6 | 184 | 0.0 | 0.0 | 0.00 | 0.05 | 0.00 | 56 | 1009.7 |
| 20260504100314 | 7 | 177 | 0.0 | 3.2 | 0.00 | 0.05 | 0.00 | 47 | 1009.7 |
| 20260504081753 | 7 | 305 | 1.6 | 6.4 | 0.00 | 0.05 | 0.00 | 46 | 1009.9 |
| 20260504081250 | 7 | 200 | 0.0 | 4.8 | 0.00 | 0.05 | 0.00 | 47 | 1009.8 |
| 20260504080807 | 7 | 274 | 0.0 | 1.6 | 0.00 | 0.05 | 0.00 | 46 | 1009.8 |
| 20260504080243 | 7 | 281 | 0.0 | 1.6 | 0.00 | 0.05 | 0.00 | 44 | 1009.8 |
| 20260504070321 | 7 | 250 | 0.0 | 1.6 | 0.00 | 0.05 | 0.00 | 42 | 1009.8 |
| 20260504060239 | 5 | 282 | 0.0 | 1.6 | 0.00 | 0.05 | 0.00 | 47 | 1009.9 |
| 20260504050748 | 4 | 238 | 1.6 | 4.8 | 0.00 | 0.05 | 0.00 | 55 | 1009.9 |
| 20260504050300 | 3 | 115 | 0.0 | 6.4 | 0.00 | 0.05 | 0.00 | 55 | 1010.0 |
| 20260504045758 | 3 | 180 | 0.0 | 6.4 | 0.00 | 0.05 | 0.00 | 54 | 1010.0 |
| 20260504045253 | 3 | 264 | 0.0 | 8.0 | 0.00 | 0.05 | 0.00 | 55 | 1010.0 |
| 20260504044753 | 3 | 247 | 0.0 | 8.0 | 0.00 | 0.05 | 0.00 | 54 | 1010.0 |
| 20260504044247 | 3 | 330 | 1.6 | 3.2 | 0.00 | 0.05 | 0.00 | 56 | 1010.1 |
| 20260504043747 | 2 | 250 | 0.0 | 1.6 | 0.00 | 0.05 | 0.00 | 58 | 1010.0 |
| 20260504043245 | 2 | 256 | 0.0 | 1.6 | 0.00 | 0.05 | 0.00 | 58 | 1010.1 |
| 20260504043009 | 2 | 245 | 0.0 | 1.6 | 0.00 | 0.05 | 0.00 | 57 | 1010.4 |
| 20260504042808 | 3 | 246 | 0.0 | 1.6 | 0.00 | 0.05 | 0.00 | 58 | 1010.0 |
| 20260504042243 | 3 | 245 | 1.6 | 1.6 | 0.00 | 0.05 | 0.00 | 57 | 1010.0 |
| 20260504041741 | 3 | 251 | 0.0 | 1.6 | 0.00 | 0.05 | 0.00 | 56 | 1010.0 |
| 20260504041254 | 3 | 244 | 0.0 | 3.2 | 0.00 | 0.05 | 0.00 | 55 | 1009.9 |
| 20260504040755 | 3 | 231 | 0.0 | 3.2 | 0.00 | 0.05 | 0.00 | 55 | 1009.8 |
| 20260504040310 | 2 | 248 | 0.0 | 1.6 | 0.00 | 0.05 | 0.00 | 56 | 1009.8 |
| 20260504040029 | 2 | 245 | 0.0 | 1.6 | 0.00 | 0.05 | 0.05 | 56 | 1010.2 |
| 20260504035810 | 3 | 250 | 0.0 | 1.6 | 0.00 | 0.05 | 0.05 | 56 | 1009.9 |
| 20260504035246 | 3 | 250 | 0.0 | 1.6 | 0.00 | 0.05 | 0.05 | 57 | 1009.9 |
| 20260504034748 | 3 | 251 | 0.0 | 1.6 | 0.00 | 0.05 | 0.05 | 54 | 1009.8 |
| 20260504034507 | 3 | 251 | 0.0 | 1.6 | 0.00 | 0.05 | 0.05 | 54 | 1010.3 |
| 20260504034306 | 3 | 251 | 0.0 | 1.6 | 0.00 | 0.05 | 0.05 | 54 | 1009.7 |
| 20260504033746 | 3 | 251 | 0.0 | 1.6 | 0.00 | 0.05 | 0.05 | 55 | 1009.8 |
| 20260504033243 | 3 | 251 | 0.0 | 1.6 | 0.00 | 0.05 | 0.05 | 53 | 1009.8 |
| 20260504032744 | 3 | 251 | 0.0 | 1.6 | 0.00 | 0.05 | 0.05 | 52 | 1009.9 |
| 20260504032256 | 3 | 251 | 0.0 | 1.6 | 0.00 | 0.05 | 0.05 | 51 | 1009.8 |
| 20260504031754 | 3 | 251 | 0.0 | 1.6 | 0.00 | 0.05 | 0.05 | 52 | 1009.8 |
| 20260504031514 | 3 | 251 | 0.0 | 1.6 | 0.00 | 0.05 | 0.05 | 52 | 1010.2 |
| 20260504031311 | 3 | 256 | 0.0 | 1.6 | 0.00 | 0.05 | 0.05 | 52 | 1009.8 |
| 20260504030830 | 3 | 108 | 0.0 | 1.6 | 0.00 | 0.05 | 0.05 | 52 | 1009.8 |
| 20260504030242 | 4 | 259 | 0.0 | 1.6 | 0.00 | 0.05 | 0.05 | 55 | 1009.9 |
| 20260504030003 | 3 | 259 | 0.0 | 1.6 | 0.00 | 0.05 | 0.05 | 54 | 1010.2 |
| 20260504025802 | 4 | 273 | 0.0 | 1.6 | 0.00 | 0.05 | 0.05 | 51 | 1009.9 |
| 20260504024752 | 5 | 296 | 0.0 | 3.2 | 0.00 | 0.05 | 0.05 | 48 | 1009.8 |
| 20260504024508 | 5 | 297 | 0.0 | 3.2 | 0.00 | 0.05 | 0.05 | 47 | 1010.2 |
| 20260504024308 | 5 | 297 | 0.0 | 3.2 | 0.00 | 0.05 | 0.05 | 47 | 1009.8 |
| 20260504023808 | 5 | 270 | 0.0 | 1.6 | 0.00 | 0.05 | 0.05 | 46 | 1009.8 |
| 20260504023246 | 5 | 258 | 0.0 | 0.0 | 0.00 | 0.05 | 0.05 | 46 | 1009.7 |
| 20260504022745 | 5 | 258 | 0.0 | 0.0 | 0.00 | 0.05 | 0.05 | 47 | 1009.6 |
| 20260504022243 | 5 | 258 | 0.0 | 0.0 | 0.00 | 0.05 | 0.05 | 48 | 1009.7 |
| 20260504021743 | 5 | 263 | 0.0 | 0.0 | 0.00 | 0.05 | 0.05 | 48 | 1009.7 |
| 20260504021240 | 5 | 248 | 0.0 | 0.0 | 0.00 | 0.05 | 0.05 | 49 | 1009.7 |
| 20260504020743 | 5 | 245 | 0.0 | 0.0 | 0.00 | 0.05 | 0.05 | 48 | 1009.7 |
| 20260504020316 | 5 | 249 | 0.0 | 0.0 | 0.00 | 0.05 | 0.05 | 49 | 1009.7 |
| 20260504015755 | 5 | 259 | 0.0 | 0.0 | 0.00 | 0.05 | 0.05 | 48 | 1009.7 |
| 20260504015308 | 4 | 259 | 0.0 | 0.0 | 0.00 | 0.05 | 0.05 | 50 | 1009.6 |
| 20260504014746 | 4 | 259 | 0.0 | 0.0 | 0.00 | 0.05 | 0.05 | 50 | 1009.6 |
| 20260504014244 | 4 | 259 | 0.0 | 0.0 | 0.00 | 0.05 | 0.05 | 50 | 1009.6 |
| 20260504013743 | 4 | 259 | 0.0 | 0.0 | 0.00 | 0.05 | 0.05 | 51 | 1009.5 |
| 20260504013258 | 4 | 257 | 0.0 | 0.0 | 0.00 | 0.05 | 0.05 | 51 | 1009.6 |
| 20260504012757 | 5 | 260 | 0.0 | 0.0 | 0.00 | 0.05 | 0.05 | 50 | 1009.4 |
| 20260504012312 | 5 | 260 | 0.0 | 0.0 | 0.00 | 0.05 | 0.05 | 49 | 1009.4 |
| 20260504011752 | 5 | 256 | 0.0 | 0.0 | 0.00 | 0.05 | 0.05 | 49 | 1009.4 |
| 20260504011244 | 5 | 256 | 0.0 | 0.0 | 0.00 | 0.05 | 0.05 | 49 | 1009.4 |
| 20260504010804 | 5 | 255 | 0.0 | 0.0 | 0.00 | 0.05 | 0.05 | 49 | 1009.2 |
| 20260504010300 | 5 | 251 | 0.0 | 0.0 | 0.00 | 0.05 | 0.05 | 48 | 1009.1 |
| 20260504005758 | 5 | 251 | 0.0 | 0.0 | 0.00 | 0.05 | 0.05 | 47 | 1009.1 |
| 20260504005256 | 5 | 251 | 0.0 | 0.0 | 0.00 | 0.05 | 0.05 | 46 | 1009.1 |
| 20260504004755 | 6 | 251 | 0.0 | 0.0 | 0.00 | 0.05 | 0.05 | 46 | 1008.9 |
| 20260504004251 | 6 | 251 | 0.0 | 0.0 | 0.00 | 0.05 | 0.05 | 45 | 1008.8 |
| 20260504003750 | 6 | 251 | 0.0 | 0.0 | 0.00 | 0.05 | 0.05 | 43 | 1008.7 |
| 20260504003247 | 6 | 251 | 0.0 | 0.0 | 0.00 | 0.05 | 0.05 | 41 | 1008.7 |
| 20260504003011 | 6 | 251 | 0.0 | 0.0 | 0.00 | 0.05 | 0.05 | 43 | 1009.0 |
| 20260504002807 | 6 | 251 | 0.0 | 0.0 | 0.00 | 0.05 | 0.05 | 43 | 1008.7 |
| 20260504002240 | 6 | 251 | 0.0 | 1.6 | 0.00 | 0.05 | 0.05 | 43 | 1008.7 |
| 20260504001801 | 7 | 251 | 0.0 | 1.6 | 0.00 | 0.05 | 0.05 | 41 | 1008.6 |
| 20260504001257 | 7 | 250 | 0.0 | 1.6 | 0.00 | 0.05 | 0.05 | 41 | 1008.5 |
| 20260504000756 | 7 | 248 | 0.0 | 1.6 | 0.00 | 0.05 | 0.05 | 39 | 1008.6 |
| 20260504000252 | 7 | 248 | 0.0 | 4.8 | 0.00 | 0.05 | 0.05 | 38 | 1008.5 |
| 20260503235751 | 8 | 248 | 0.0 | 4.8 | 0.00 | 0.10 | 0.05 | 39 | 1008.4 |
| 20260503235251 | 8 | 236 | 0.0 | 4.8 | 0.00 | 0.10 | 0.05 | 36 | 1008.4 |
| 20260503234751 | 8 | 268 | 1.6 | 4.8 | 0.00 | 0.10 | 0.05 | 37 | 1008.4 |
| 20260503234508 | 8 | 315 | 0.0 | 1.6 | 0.00 | 0.10 | 0.05 | 37 | 1008.6 |
| 20260503234308 | 8 | 260 | 0.0 | 1.6 | 0.00 | 0.10 | 0.05 | 37 | 1008.4 |
| 20260503233749 | 8 | 286 | 0.0 | 6.4 | 0.00 | 0.10 | 0.05 | 37 | 1008.2 |
| 20260503233244 | 8 | 284 | 1.6 | 6.4 | 0.00 | 0.10 | 0.05 | 35 | 1008.1 |
| 20260503232744 | 9 | 259 | 1.6 | 3.2 | 0.00 | 0.10 | 0.05 | 35 | 1008.1 |
| 20260503232244 | 9 | 356 | 0.0 | 4.8 | 0.00 | 0.10 | 0.05 | 34 | 1008.1 |
| 20260503231743 | 9 | 253 | 1.6 | 6.4 | 0.00 | 0.10 | 0.05 | 33 | 1008.2 |
| 20260503231240 | 9 | 325 | 1.6 | 6.4 | 0.00 | 0.10 | 0.05 | 32 | 1008.2 |
| 20260503230742 | 9 | 290 | 1.6 | 16.1 | 0.00 | 0.10 | 0.05 | 31 | 1008.0 |
| 20260503230241 | 9 | 292 | 4.8 | 16.1 | 0.00 | 0.10 | 0.05 | 31 | 1008.0 |
| 20260503225248 | 10 | 226 | 3.2 | 16.1 | 0.00 | 0.13 | 0.05 | 30 | 1007.9 |
| 20260503224749 | 10 | 57 | 3.2 | 14.5 | 0.00 | 0.13 | 0.05 | 32 | 1008.0 |
| 20260503224248 | 10 | 257 | 1.6 | 11.3 | 0.00 | 0.13 | 0.05 | 31 | 1007.9 |
| 20260503223748 | 10 | 252 | 4.8 | 11.3 | 0.00 | 0.13 | 0.05 | 30 | 1007.8 |
| 20260503223246 | 10 | 287 | 4.8 | 12.9 | 0.00 | 0.13 | 0.05 | 29 | 1007.7 |
| 20260503222747 | 10 | 245 | 4.8 | 19.3 | 0.00 | 0.13 | 0.05 | 30 | 1007.7 |
| 20260503222241 | 10 | 65 | 4.8 | 20.9 | 0.00 | 0.13 | 0.05 | 30 | 1007.7 |
| 20260503221746 | 10 | 290 | 4.8 | 25.7 | 0.00 | 0.13 | 0.05 | 30 | 1007.6 |
| 20260503221243 | 10 | 314 | 6.4 | 16.1 | 0.00 | 0.13 | 0.05 | 29 | 1007.5 |
| 20260503220743 | 11 | 277 | 4.8 | 25.7 | 0.00 | 0.13 | 0.05 | 27 | 1007.5 |
| 20260503220239 | 11 | 156 | 4.8 | 25.7 | 0.00 | 0.13 | 0.05 | 28 | 1007.4 |
| 20260503215740 | 11 | 273 | 6.4 | 33.8 | 0.00 | 0.23 | 0.05 | 27 | 1007.6 |
| 20260503215257 | 10 | 288 | 9.7 | 33.8 | 0.00 | 0.23 | 0.05 | 28 | 1007.3 |
| 20260503214755 | 10 | 349 | 8.0 | 22.5 | 0.00 | 0.23 | 0.05 | 28 | 1007.3 |
| 20260503214251 | 10 | 250 | 6.4 | 19.3 | 0.00 | 0.23 | 0.05 | 28 | 1007.1 |
| 20260503213751 | 10 | 278 | 6.4 | 16.1 | 0.00 | 0.23 | 0.05 | 27 | 1007.1 |
| 20260503213245 | 10 | 45 | 4.8 | 11.3 | 0.00 | 0.23 | 0.05 | 29 | 1007.2 |
| 20260503212744 | 10 | 23 | 1.6 | 29.0 | 0.00 | 0.23 | 0.05 | 30 | 1007.2 |
| 20260503212241 | 10 | 281 | 11.3 | 29.0 | 0.00 | 0.23 | 0.05 | 28 | 1007.0 |
| 20260503211742 | 10 | 20 | 8.0 | 25.7 | 0.00 | 0.23 | 0.05 | 27 | 1006.9 |
| 20260503211258 | 10 | 281 | 8.0 | 16.1 | 0.00 | 0.23 | 0.05 | 27 | 1006.9 |
| 20260503210818 | 10 | 221 | 6.4 | 25.7 | 0.00 | 0.23 | 0.05 | 29 | 1006.9 |
| 20260503210253 | 10 | 313 | 8.0 | 25.7 | 0.00 | 0.23 | 0.05 | 28 | 1006.8 |
| 20260503205754 | 10 | 359 | 9.7 | 22.5 | 0.00 | 0.23 | 0.05 | 28 | 1006.8 |
| 20260503205251 | 10 | 266 | 8.0 | 22.5 | 0.00 | 0.23 | 0.05 | 28 | 1006.7 |
| 20260503204751 | 10 | 47 | 6.4 | 20.9 | 0.00 | 0.23 | 0.05 | 29 | 1006.6 |
| 20260503204250 | 10 | 233 | 4.8 | 22.5 | 0.00 | 0.23 | 0.05 | 31 | 1006.5 |
| 20260503203805 | 10 | 248 | 4.8 | 22.5 | 0.00 | 0.23 | 0.05 | 32 | 1006.6 |
| 20260503203243 | 10 | 13 | 6.4 | 19.3 | 0.00 | 0.23 | 0.05 | 28 | 1006.5 |
| 20260503202743 | 10 | 14 | 6.4 | 19.3 | 0.00 | 0.23 | 0.05 | 29 | 1006.5 |
| 20260503202257 | 10 | 285 | 8.0 | 17.7 | 0.00 | 0.23 | 0.05 | 28 | 1006.5 |
| 20260503201756 | 10 | 235 | 6.4 | 16.1 | 0.00 | 0.23 | 0.05 | 28 | 1006.6 |
| 20260503201244 | 10 | 278 | 4.8 | 24.1 | 0.00 | 0.23 | 0.05 | 29 | 1006.5 |
| 20260503200804 | 10 | 257 | 6.4 | 24.1 | 0.00 | 0.23 | 0.05 | 29 | 1006.4 |
| 20260503200239 | 11 | 300 | 6.4 | 20.9 | 0.00 | 0.23 | 0.05 | 30 | 1006.4 |
| 20260503195816 | 11 | 307 | 8.0 | 20.9 | 0.00 | 0.23 | 0.05 | 28 | 1006.5 |
| 20260503195310 | 11 | 28 | 4.8 | 16.1 | 0.00 | 0.23 | 0.05 | 29 | 1006.5 |
| 20260503194746 | 10 | 291 | 4.8 | 16.1 | 0.00 | 0.23 | 0.05 | 28 | 1006.4 |
| 20260503194245 | 11 | 327 | 3.2 | 12.9 | 0.00 | 0.23 | 0.05 | 29 | 1006.4 |
| 20260503193745 | 11 | 304 | 3.2 | 25.7 | 0.00 | 0.23 | 0.05 | 30 | 1006.3 |
| 20260503193241 | 10 | 300 | 6.4 | 25.7 | 0.00 | 0.23 | 0.05 | 28 | 1006.5 |
| 20260503192742 | 10 | 277 | 6.4 | 14.5 | 0.00 | 0.23 | 0.05 | 29 | 1006.3 |
| 20260503192259 | 10 | 28 | 4.8 | 17.7 | 0.00 | 0.23 | 0.05 | 30 | 1006.4 |
| 20260503191738 | 11 | 272 | 6.4 | 17.7 | 0.00 | 0.23 | 0.05 | 28 | 1006.4 |
| 20260503191252 | 11 | 18 | 4.8 | 11.3 | 0.00 | 0.23 | 0.05 | 29 | 1006.4 |
| 20260503190750 | 11 | 276 | 1.6 | 9.7 | 0.00 | 0.23 | 0.05 | 31 | 1006.3 |
| 20260503190247 | 10 | 63 | 4.8 | 17.7 | 0.00 | 0.23 | 0.05 | 31 | 1006.4 |
| 20260503185748 | 10 | 352 | 4.8 | 17.7 | 0.00 | 0.36 | 0.05 | 30 | 1006.5 |
| 20260503185244 | 10 | 285 | 4.8 | 19.3 | 0.00 | 0.36 | 0.05 | 31 | 1006.5 |